CFG621 EDDF-LEST

Flight info

Callsign CFG621
Flight time 2h 21m
Altitude 40000
Route SOBRA2L/18 SOBRA Y180 DIK UN857 TOLVU/N0461F390 DCT RAPOR DCT GIMER/N0456F350 DCT ESTOC UT300 PON UN872 GODIX/N0436F310 UN872 DIDAK/N0466F390 UN872 ERIGA UZ218 FUJTI DCT ATLEN/N0378F230 N872 VES M190 ROXER
Aircraft A333/H-SDE3GHIJ2J3J5M1RVWXY/LB2D1

Departure

Time 2026-05-03 21:15
Airport Frankfurt Main Airport (EDDF)

Arrival

Time 2026-05-03 23:37
Airport Santiago-Rosalía de Castro Airport (LEST)
Time Latitude Longitude Altitude Speed Heading
2026-05-03 20:24 50.04639 8.56653 379 ft 0 kts 114°
2026-05-03 21:02 50.04642 8.56645 378 ft 2 kts 130°
2026-05-03 21:02 50.04651 8.56627 378 ft 2 kts 119°
2026-05-03 21:02 50.04657 8.56606 378 ft 2 kts 112°
2026-05-03 21:02 50.04664 8.56584 378 ft 2 kts 124°
2026-05-03 21:03 50.04673 8.56567 378 ft 2 kts 147°
2026-05-03 21:03 50.04687 8.56556 378 ft 2 kts 166°
2026-05-03 21:03 50.04702 8.56553 378 ft 2 kts 186°
2026-05-03 21:03 50.04715 8.56558 378 ft 0 kts 204°
2026-05-03 21:04 50.04720 8.56561 378 ft 0 kts 206°
2026-05-03 21:07 50.04720 8.56560 378 ft 0 kts 206°
2026-05-03 21:07 50.04701 8.56547 378 ft 5 kts 205°
2026-05-03 21:08 50.04639 8.56505 378 ft 11 kts 205°
2026-05-03 21:08 50.04626 8.56495 378 ft 0 kts 206°
2026-05-03 21:08 50.04626 8.56427 378 ft 13 kts 284°
2026-05-03 21:08 50.04621 8.56249 378 ft 17 kts 252°
2026-05-03 21:09 50.04579 8.56073 378 ft 16 kts 251°
2026-05-03 21:09 50.04520 8.55955 378 ft 13 kts 211°
2026-05-03 21:09 50.04458 8.55920 378 ft 8 kts 197°
2026-05-03 21:09 50.04398 8.55908 377 ft 9 kts 174°
2026-05-03 21:10 50.04327 8.55938 377 ft 11 kts 161°
2026-05-03 21:10 50.04252 8.55925 377 ft 11 kts 224°
2026-05-03 21:10 50.04203 8.55783 377 ft 18 kts 248°
2026-05-03 21:10 50.04149 8.55562 377 ft 23 kts 250°
2026-05-03 21:11 50.04092 8.55320 377 ft 23 kts 250°
2026-05-03 21:11 50.04037 8.55089 377 ft 22 kts 250°
2026-05-03 21:11 50.03984 8.54872 377 ft 21 kts 250°
2026-05-03 21:11 50.03935 8.54666 377 ft 19 kts 250°
2026-05-03 21:12 50.03888 8.54468 377 ft 18 kts 250°
2026-05-03 21:12 50.03828 8.54296 377 ft 17 kts 238°
2026-05-03 21:12 50.03779 8.54132 377 ft 16 kts 251°
2026-05-03 21:12 50.03741 8.53970 377 ft 15 kts 250°
2026-05-03 21:13 50.03695 8.53783 377 ft 21 kts 250°
2026-05-03 21:13 50.03634 8.53538 377 ft 25 kts 248°
2026-05-03 21:13 50.03571 8.53273 377 ft 26 kts 250°
2026-05-03 21:13 50.03507 8.53006 377 ft 21 kts 249°
2026-05-03 21:14 50.03457 8.52815 377 ft 15 kts 246°
2026-05-03 21:14 50.03420 8.52674 377 ft 13 kts 244°
2026-05-03 21:14 50.03299 8.52592 377 ft 29 kts 182°
2026-05-03 21:14 50.02892 8.52595 377 ft 90 kts 180°
2026-05-03 21:15 50.02068 8.52604 377 ft 145 kts 181°
2026-05-03 21:15 50.00929 8.52623 624 ft 168 kts 180°
2026-05-03 21:15 49.99825 8.52737 1270 ft 166 kts 180°
2026-05-03 21:15 49.98662 8.53004 1823 ft 177 kts 171°
2026-05-03 21:16 49.97503 8.53579 2550 ft 175 kts 169°
2026-05-03 21:16 49.96337 8.53794 3127 ft 169 kts 203°
2026-05-03 21:16 49.95147 8.53363 3547 ft 193 kts 193°
2026-05-03 21:16 49.93709 8.53231 4038 ft 219 kts 187°
2026-05-03 21:17 49.92032 8.53227 4014 ft 269 kts 184°
2026-05-03 21:17 49.90717 8.53286 4023 ft 300 kts 182°
2026-05-03 21:17 49.87652 8.53380 4316 ft 344 kts 187°
2026-05-03 21:17 49.85351 8.53270 4887 ft 319 kts 180°
2026-05-03 21:18 49.83149 8.53707 4286 ft 324 kts 172°
2026-05-03 21:18 49.80997 8.54471 4385 ft 296 kts 177°
2026-05-03 21:18 49.79130 8.54438 5254 ft 264 kts 193°
2026-05-03 21:18 49.77319 8.53682 6131 ft 279 kts 205°
2026-05-03 21:19 49.75784 8.51848 7019 ft 286 kts 233°
2026-05-03 21:19 49.74891 8.49138 7826 ft 286 kts 251°
2026-05-03 21:19 49.74386 8.46198 8626 ft 287 kts 256°
2026-05-03 21:19 49.73915 8.43214 9396 ft 288 kts 259°
2026-05-03 21:20 49.73994 8.40136 10048 ft 297 kts 285°
2026-05-03 21:20 49.74934 8.37352 11072 ft 293 kts 306°
2026-05-03 21:20 49.76443 8.35392 12101 ft 288 kts 330°
2026-05-03 21:20 49.78163 8.34065 13066 ft 272 kts 319°
2026-05-03 21:21 49.79328 8.31952 13931 ft 252 kts 290°
2026-05-03 21:21 49.79689 8.29404 14598 ft 242 kts 271°
2026-05-03 21:21 49.79942 8.26800 15017 ft 250 kts 278°
2026-05-03 21:21 49.80310 8.24092 15200 ft 268 kts 279°
2026-05-03 21:22 49.80730 8.21180 15382 ft 285 kts 279°
2026-05-03 21:22 49.81178 8.18139 15563 ft 302 kts 279°
2026-05-03 21:22 49.81659 8.14880 15848 ft 316 kts 279°
2026-05-03 21:22 49.82148 8.11585 16471 ft 317 kts 279°
2026-05-03 21:23 49.82642 8.08238 17111 ft 318 kts 279°
2026-05-03 21:23 49.83136 8.04941 17673 ft 321 kts 281°
2026-05-03 21:23 49.83520 8.01528 18129 ft 320 kts 265°
2026-05-03 21:23 49.83106 7.98231 18731 ft 315 kts 253°
2026-05-03 21:24 49.82645 7.94917 19268 ft 319 kts 256°
2026-05-03 21:24 49.82228 7.91553 19787 ft 322 kts 256°
2026-05-03 21:24 49.81817 7.88150 20283 ft 325 kts 256°
2026-05-03 21:24 49.81399 7.84700 20811 ft 326 kts 256°
2026-05-03 21:25 49.80979 7.81234 21342 ft 328 kts 256°
2026-05-03 21:25 49.80563 7.77810 21855 ft 329 kts 256°
2026-05-03 21:25 49.80135 7.74289 22330 ft 331 kts 256°
2026-05-03 21:25 49.79712 7.70815 22809 ft 333 kts 256°
2026-05-03 21:26 49.79281 7.67291 23239 ft 336 kts 256°
2026-05-03 21:26 49.78849 7.63766 23676 ft 338 kts 256°
2026-05-03 21:26 49.78408 7.60169 24147 ft 340 kts 256°
2026-05-03 21:26 49.77969 7.56611 24541 ft 343 kts 256°
2026-05-03 21:27 49.77517 7.52962 24990 ft 346 kts 256°
2026-05-03 21:27 49.77066 7.49317 25414 ft 348 kts 256°
2026-05-03 21:27 49.76610 7.45646 25830 ft 351 kts 256°
2026-05-03 21:27 49.76181 7.41948 26250 ft 354 kts 258°
2026-05-03 21:28 49.75796 7.38161 26667 ft 356 kts 258°
2026-05-03 21:28 49.75416 7.34395 27051 ft 359 kts 258°
2026-05-03 21:28 49.75028 7.30548 27456 ft 362 kts 258°
2026-05-03 21:28 49.74643 7.26726 27885 ft 364 kts 258°
2026-05-03 21:29 49.74248 7.22818 28267 ft 367 kts 258°
2026-05-03 21:29 49.73851 7.18909 28669 ft 369 kts 258°
2026-05-03 21:29 49.73452 7.14985 29060 ft 371 kts 258°
2026-05-03 21:29 49.73048 7.11020 29490 ft 373 kts 258°
2026-05-03 21:30 49.72641 7.07050 29848 ft 376 kts 258°
2026-05-03 21:30 49.72228 7.03018 30189 ft 379 kts 258°
2026-05-03 21:30 49.71818 6.99033 30591 ft 380 kts 258°
2026-05-03 21:30 49.71411 6.94973 30961 ft 382 kts 258°
2026-05-03 21:31 49.70628 6.91114 31278 ft 379 kts 242°
2026-05-03 21:31 49.69384 6.87504 31654 ft 380 kts 241°
2026-05-03 21:31 49.68158 6.83954 31966 ft 383 kts 241°
2026-05-03 21:31 49.66898 6.80340 32334 ft 382 kts 241°
2026-05-03 21:32 49.65648 6.76767 33130 ft 372 kts 241°
2026-05-03 21:32 49.64437 6.73316 33619 ft 368 kts 241°
2026-05-03 21:32 49.63213 6.69835 33922 ft 369 kts 241°
2026-05-03 21:32 49.61985 6.66340 34158 ft 372 kts 241°
2026-05-03 21:33 49.60746 6.62830 34358 ft 375 kts 242°
2026-05-03 21:33 49.59493 6.59276 34575 ft 378 kts 241°
2026-05-03 21:33 49.58246 6.55750 34683 ft 383 kts 241°
2026-05-03 21:33 49.56956 6.52100 34801 ft 387 kts 241°
2026-05-03 21:34 49.55665 6.48460 34912 ft 391 kts 242°
2026-05-03 21:34 49.54367 6.44803 35016 ft 396 kts 242°
2026-05-03 21:34 49.53041 6.41067 35160 ft 399 kts 242°
2026-05-03 21:34 49.51702 6.37308 35370 ft 400 kts 242°
2026-05-03 21:35 49.50371 6.33573 35588 ft 401 kts 240°
2026-05-03 21:35 49.49034 6.29827 35860 ft 400 kts 241°
2026-05-03 21:35 49.47709 6.26119 36111 ft 399 kts 240°
2026-05-03 21:35 49.46361 6.22358 36224 ft 402 kts 240°
2026-05-03 21:36 49.43666 6.14843 36431 ft 407 kts 240°
2026-05-03 21:36 49.42291 6.11020 36578 ft 409 kts 240°
2026-05-03 21:36 49.40915 6.07199 36720 ft 411 kts 240°
2026-05-03 21:37 49.39529 6.03357 36853 ft 412 kts 240°
2026-05-03 21:37 49.38161 5.99566 36999 ft 414 kts 240°
2026-05-03 21:37 49.36758 5.95691 37151 ft 415 kts 240°
2026-05-03 21:37 49.35367 5.91847 37300 ft 415 kts 240°
2026-05-03 21:38 49.33956 5.87956 37447 ft 416 kts 240°
2026-05-03 21:38 49.32556 5.84105 37591 ft 416 kts 240°
2026-05-03 21:38 49.31149 5.80238 37731 ft 417 kts 240°
2026-05-03 21:38 49.29740 5.76369 37876 ft 417 kts 240°
2026-05-03 21:39 49.28333 5.72516 38023 ft 416 kts 240°
2026-05-03 21:39 49.26927 5.68667 38159 ft 416 kts 240°
2026-05-03 21:39 49.25513 5.64804 38289 ft 416 kts 240°
2026-05-03 21:39 49.24108 5.60975 38420 ft 416 kts 240°
2026-05-03 21:40 49.22711 5.57164 38534 ft 415 kts 240°
2026-05-03 21:40 49.21282 5.53278 38661 ft 415 kts 240°
2026-05-03 21:40 49.19874 5.49455 38797 ft 414 kts 240°
2026-05-03 21:40 49.18471 5.45652 38914 ft 414 kts 240°
2026-05-03 21:41 49.17076 5.41871 39053 ft 413 kts 239°
2026-05-03 21:41 49.15661 5.38049 39172 ft 412 kts 240°
2026-05-03 21:41 49.14245 5.34222 39302 ft 411 kts 239°
2026-05-03 21:41 49.12857 5.30480 39443 ft 411 kts 239°
2026-05-03 21:42 49.11446 5.26684 39573 ft 410 kts 239°
2026-05-03 21:42 49.10036 5.22892 39695 ft 409 kts 239°
2026-05-03 21:42 49.08650 5.19167 39821 ft 408 kts 239°
2026-05-03 21:42 49.07245 5.15405 39917 ft 407 kts 239°
2026-05-03 21:43 49.04449 5.07923 39974 ft 410 kts 238°
2026-05-03 21:43 49.01619 5.00377 39998 ft 413 kts 239°
2026-05-03 21:44 48.98772 4.92803 39967 ft 416 kts 238°
2026-05-03 21:44 48.95874 4.85117 39619 ft 427 kts 238°
2026-05-03 21:45 48.94380 4.81163 39316 ft 433 kts 239°
2026-05-03 21:45 48.92869 4.77177 39050 ft 439 kts 239°
2026-05-03 21:45 48.91347 4.73160 38762 ft 444 kts 239°
2026-05-03 21:45 48.89791 4.69060 38464 ft 448 kts 239°
2026-05-03 21:46 48.88234 4.64964 38208 ft 451 kts 239°
2026-05-03 21:46 48.86674 4.60866 37968 ft 453 kts 239°
2026-05-03 21:46 48.83550 4.52679 37998 ft 448 kts 239°
2026-05-03 21:47 48.80437 4.44552 37968 ft 446 kts 239°
2026-05-03 21:47 48.77331 4.36462 37964 ft 444 kts 239°
2026-05-03 21:48 48.74228 4.28409 37959 ft 443 kts 238°
2026-05-03 21:48 48.71136 4.20404 37956 ft 442 kts 238°
2026-05-03 21:49 48.68022 4.12373 37949 ft 442 kts 238°
2026-05-03 21:49 48.64917 4.04386 37945 ft 442 kts 238°
2026-05-03 21:50 48.61828 3.96464 37948 ft 442 kts 238°
2026-05-03 21:50 48.58704 3.88471 37948 ft 441 kts 238°
2026-05-03 21:51 48.55587 3.80532 37944 ft 441 kts 238°
2026-05-03 21:51 48.52470 3.72605 37933 ft 442 kts 238°
2026-05-03 21:52 48.49340 3.64676 37937 ft 441 kts 238°
2026-05-03 21:52 48.46209 3.56760 37938 ft 441 kts 238°
2026-05-03 21:53 48.43064 3.48841 37921 ft 442 kts 238°
2026-05-03 21:53 48.39935 3.40981 37919 ft 441 kts 238°
2026-05-03 21:54 48.36771 3.33060 37926 ft 441 kts 237°
2026-05-03 21:54 48.33624 3.25198 37944 ft 442 kts 237°
2026-05-03 21:55 48.30450 3.17298 37932 ft 442 kts 238°
2026-05-03 21:55 48.27287 3.09444 37944 ft 442 kts 237°
2026-05-03 21:56 48.24118 3.01599 37913 ft 443 kts 238°
2026-05-03 21:56 48.20924 2.93717 37940 ft 443 kts 238°
2026-05-03 21:57 48.17742 2.85891 37940 ft 443 kts 238°
2026-05-03 21:57 48.14538 2.78026 37939 ft 444 kts 237°
2026-05-03 21:58 48.11325 2.70170 37935 ft 444 kts 238°
2026-05-03 21:58 48.08104 2.62313 37934 ft 444 kts 237°
2026-05-03 21:59 48.04884 2.54478 37937 ft 443 kts 238°
2026-05-03 21:59 48.01665 2.46673 37935 ft 443 kts 237°
2026-05-03 22:00 47.98437 2.38870 37944 ft 443 kts 237°
2026-05-03 22:00 47.95202 2.31070 37958 ft 442 kts 237°
2026-05-03 22:01 47.91984 2.23332 37959 ft 442 kts 237°
2026-05-03 22:01 47.88739 2.15556 37969 ft 442 kts 237°
2026-05-03 22:02 47.85524 2.07866 37969 ft 442 kts 237°
2026-05-03 22:02 47.82256 2.00079 37951 ft 442 kts 237°
2026-05-03 22:03 47.79017 1.92379 37960 ft 442 kts 237°
2026-05-03 22:03 47.75757 1.84650 37949 ft 442 kts 237°
2026-05-03 22:04 47.72501 1.76954 37948 ft 442 kts 237°
2026-05-03 22:04 47.69226 1.69234 37947 ft 442 kts 237°
2026-05-03 22:05 47.65957 1.61554 37945 ft 442 kts 237°
2026-05-03 22:05 47.62674 1.53861 37949 ft 442 kts 237°
2026-05-03 22:06 47.60512 1.48810 37948 ft 441 kts 237°
2026-05-03 22:06 47.59156 1.45640 37949 ft 441 kts 237°
2026-05-03 22:07 47.55872 1.37989 37947 ft 441 kts 237°
2026-05-03 22:07 47.52600 1.30385 37956 ft 441 kts 236°
2026-05-03 22:08 47.49298 1.22740 37964 ft 441 kts 236°
2026-05-03 22:08 47.46020 1.15162 37953 ft 440 kts 236°
2026-05-03 22:09 47.42727 1.07579 37962 ft 440 kts 236°
2026-05-03 22:10 47.37767 0.96190 37955 ft 439 kts 236°
2026-05-03 22:10 47.34478 0.88663 37949 ft 438 kts 236°
2026-05-03 22:11 47.31196 0.81173 37953 ft 437 kts 236°
2026-05-03 22:11 47.27881 0.73630 37942 ft 437 kts 236°
2026-05-03 22:12 47.24585 0.66148 37945 ft 437 kts 236°
2026-05-03 22:12 47.21292 0.58697 37927 ft 437 kts 236°
2026-05-03 22:13 47.17987 0.51238 37922 ft 437 kts 236°
2026-05-03 22:13 47.14668 0.43766 37940 ft 437 kts 236°
2026-05-03 22:14 47.11358 0.36336 37937 ft 437 kts 236°
2026-05-03 22:14 47.08028 0.28881 37943 ft 437 kts 236°
2026-05-03 22:15 47.04711 0.21476 37936 ft 437 kts 236°
2026-05-03 22:15 47.01393 0.14086 37943 ft 437 kts 236°
2026-05-03 22:16 46.98041 0.06639 37935 ft 437 kts 235°
2026-05-03 22:16 46.94691 -0.00782 37954 ft 438 kts 235°
2026-05-03 22:17 46.91344 -0.08172 37957 ft 438 kts 236°
2026-05-03 22:17 46.87983 -0.15579 37960 ft 439 kts 236°
2026-05-03 22:18 46.84618 -0.22973 37974 ft 439 kts 235°
2026-05-03 22:18 46.81248 -0.30359 37971 ft 439 kts 235°
2026-05-03 22:19 46.77873 -0.37734 37965 ft 438 kts 235°
2026-05-03 22:19 46.74484 -0.45121 37969 ft 438 kts 235°
2026-05-03 22:20 46.71104 -0.52468 37951 ft 437 kts 235°
2026-05-03 22:20 46.67721 -0.59805 37960 ft 437 kts 235°
2026-05-03 22:21 46.64341 -0.67113 37956 ft 437 kts 235°
2026-05-03 22:21 46.60954 -0.74420 37948 ft 437 kts 234°
2026-05-03 22:22 46.57568 -0.81703 37956 ft 436 kts 234°
2026-05-03 22:22 46.54173 -0.88989 37946 ft 436 kts 234°
2026-05-03 22:23 46.50787 -0.96234 37955 ft 436 kts 234°
2026-05-03 22:23 46.47384 -1.03497 37958 ft 437 kts 234°
2026-05-03 22:24 46.43969 -1.10770 37950 ft 437 kts 234°
2026-05-03 22:24 46.40548 -1.18033 37937 ft 438 kts 234°
2026-05-03 22:25 46.37137 -1.25256 37934 ft 438 kts 234°
2026-05-03 22:25 46.33712 -1.32492 37940 ft 438 kts 234°
2026-05-03 22:26 46.30256 -1.39774 37945 ft 439 kts 234°
2026-05-03 22:26 46.26809 -1.47016 37937 ft 439 kts 234°
2026-05-03 22:27 46.23362 -1.54242 37938 ft 439 kts 234°
2026-05-03 22:27 46.19905 -1.61471 37932 ft 440 kts 234°
2026-05-03 22:28 46.16430 -1.68715 37931 ft 440 kts 233°
2026-05-03 22:28 46.12957 -1.75943 37940 ft 440 kts 233°
2026-05-03 22:29 46.09475 -1.83166 37943 ft 441 kts 234°
2026-05-03 22:29 46.05986 -1.90386 37940 ft 441 kts 233°
2026-05-03 22:30 46.02502 -1.97577 37938 ft 441 kts 233°
2026-05-03 22:30 45.98983 -2.04822 37934 ft 441 kts 233°
2026-05-03 22:31 45.95493 -2.11987 37943 ft 441 kts 234°
2026-05-03 22:31 45.91962 -2.19220 37939 ft 442 kts 233°
2026-05-03 22:32 45.88429 -2.26439 37951 ft 442 kts 234°
2026-05-03 22:32 45.84914 -2.33600 37942 ft 443 kts 234°
2026-05-03 22:33 45.81364 -2.40815 37941 ft 443 kts 234°
2026-05-03 22:33 45.77804 -2.48034 37949 ft 446 kts 234°
2026-05-03 22:34 45.74236 -2.55247 37949 ft 446 kts 234°
2026-05-03 22:34 45.70668 -2.62447 37953 ft 446 kts 234°
2026-05-03 22:35 45.67071 -2.69684 37951 ft 447 kts 233°
2026-05-03 22:35 45.63495 -2.76858 37960 ft 447 kts 233°
2026-05-03 22:36 45.59889 -2.84079 37963 ft 447 kts 233°
2026-05-03 22:36 45.56294 -2.91257 37965 ft 447 kts 233°
2026-05-03 22:37 45.52676 -2.98461 37959 ft 448 kts 233°
2026-05-03 22:37 45.49062 -3.05640 37956 ft 448 kts 233°
2026-05-03 22:38 45.45447 -3.12805 37966 ft 448 kts 233°
2026-05-03 22:38 45.41799 -3.20014 37966 ft 448 kts 233°
2026-05-03 22:39 45.38166 -3.27179 37961 ft 449 kts 233°
2026-05-03 22:39 45.34512 -3.34364 37961 ft 449 kts 233°
2026-05-03 22:40 45.30880 -3.41491 37949 ft 449 kts 233°
2026-05-03 22:40 45.27213 -3.48666 37968 ft 449 kts 233°
2026-05-03 22:41 45.23568 -3.55779 37959 ft 449 kts 233°
2026-05-03 22:41 45.19882 -3.62955 37960 ft 449 kts 233°
2026-05-03 22:42 45.16218 -3.70069 37962 ft 450 kts 233°
2026-05-03 22:42 45.12542 -3.77194 37970 ft 450 kts 233°
2026-05-03 22:43 45.08834 -3.84357 37957 ft 451 kts 233°
2026-05-03 22:43 45.05149 -3.91463 37969 ft 451 kts 233°
2026-05-03 22:44 45.01430 -3.98615 37957 ft 452 kts 233°
2026-05-03 22:44 44.97727 -4.05715 37957 ft 452 kts 233°
2026-05-03 22:45 44.93999 -4.12849 37958 ft 450 kts 233°
2026-05-03 22:45 44.92147 -4.16386 37951 ft 439 kts 233°
2026-05-03 22:45 44.90365 -4.19785 37803 ft 429 kts 233°
2026-05-03 22:45 44.88611 -4.23127 37532 ft 423 kts 233°
2026-05-03 22:46 44.86874 -4.26432 37195 ft 416 kts 233°
2026-05-03 22:46 44.85181 -4.29650 36879 ft 409 kts 233°
2026-05-03 22:46 44.83514 -4.32815 36559 ft 402 kts 233°
2026-05-03 22:46 44.81866 -4.35941 36235 ft 396 kts 233°
2026-05-03 22:47 44.80213 -4.39071 35913 ft 396 kts 233°
2026-05-03 22:47 44.78592 -4.42142 35606 ft 397 kts 232°
2026-05-03 22:47 44.76936 -4.45271 35289 ft 398 kts 232°
2026-05-03 22:47 44.75291 -4.48379 34976 ft 399 kts 232°
2026-05-03 22:48 44.73631 -4.51509 34667 ft 398 kts 232°
2026-05-03 22:48 44.72006 -4.54574 34366 ft 397 kts 232°
2026-05-03 22:48 44.70357 -4.57675 34057 ft 395 kts 232°
2026-05-03 22:48 44.68706 -4.60780 33757 ft 396 kts 232°
2026-05-03 22:49 44.67068 -4.63856 33465 ft 397 kts 232°
2026-05-03 22:49 44.65418 -4.66950 33167 ft 396 kts 231°
2026-05-03 22:49 44.63774 -4.70032 32839 ft 395 kts 231°
2026-05-03 22:49 44.62140 -4.73092 32500 ft 396 kts 231°
2026-05-03 22:50 44.60482 -4.76192 32154 ft 395 kts 231°
2026-05-03 22:50 44.58852 -4.79237 31813 ft 396 kts 231°
2026-05-03 22:50 44.57193 -4.82335 31466 ft 396 kts 231°
2026-05-03 22:50 44.55549 -4.85398 31121 ft 397 kts 231°
2026-05-03 22:51 44.53892 -4.88486 30775 ft 398 kts 231°
2026-05-03 22:51 44.52232 -4.91573 30404 ft 398 kts 231°
2026-05-03 22:51 44.50506 -4.94595 30004 ft 392 kts 224°
2026-05-03 22:51 44.48506 -4.97009 29470 ft 372 kts 218°
2026-05-03 22:52 44.46555 -4.99212 29024 ft 351 kts 218°
2026-05-03 22:52 44.44710 -5.01291 28598 ft 337 kts 218°
2026-05-03 22:52 44.42874 -5.03355 28313 ft 341 kts 218°
2026-05-03 22:52 44.41019 -5.05439 27955 ft 341 kts 218°
2026-05-03 22:53 44.39193 -5.07488 27553 ft 337 kts 218°
2026-05-03 22:53 44.37391 -5.09511 27164 ft 333 kts 218°
2026-05-03 22:53 44.35590 -5.11529 26769 ft 330 kts 218°
2026-05-03 22:53 44.33819 -5.13511 26386 ft 329 kts 218°
2026-05-03 22:54 44.32020 -5.15523 25997 ft 328 kts 218°
2026-05-03 22:54 44.30250 -5.17502 25610 ft 326 kts 218°
2026-05-03 22:54 44.28487 -5.19470 25217 ft 324 kts 218°
2026-05-03 22:54 44.26752 -5.21406 24827 ft 322 kts 217°
2026-05-03 22:55 44.25001 -5.23360 24427 ft 321 kts 217°
2026-05-03 22:55 44.23275 -5.25283 24048 ft 320 kts 218°
2026-05-03 22:55 44.21531 -5.27223 23645 ft 318 kts 218°
2026-05-03 22:55 44.19820 -5.29127 23241 ft 317 kts 217°
2026-05-03 22:56 44.18108 -5.31030 22835 ft 315 kts 218°
2026-05-03 22:56 44.16407 -5.32920 22433 ft 314 kts 218°
2026-05-03 22:56 44.14710 -5.34803 22031 ft 313 kts 218°
2026-05-03 22:56 44.13015 -5.36684 21631 ft 312 kts 218°
2026-05-03 22:57 44.11329 -5.38552 21232 ft 310 kts 218°
2026-05-03 22:57 44.09641 -5.40422 20830 ft 309 kts 218°
2026-05-03 22:57 44.07960 -5.42282 20426 ft 307 kts 218°
2026-05-03 22:57 44.06298 -5.44119 20031 ft 306 kts 218°
2026-05-03 22:58 44.04643 -5.45948 19632 ft 305 kts 218°
2026-05-03 22:58 44.02992 -5.47772 19238 ft 303 kts 218°
2026-05-03 22:58 44.01350 -5.49583 18834 ft 303 kts 218°
2026-05-03 22:58 43.99692 -5.51411 18410 ft 302 kts 218°
2026-05-03 22:59 43.98062 -5.53207 18055 ft 301 kts 218°
2026-05-03 22:59 43.96423 -5.55012 17662 ft 300 kts 218°
2026-05-03 22:59 43.94793 -5.56805 17260 ft 299 kts 218°
2026-05-03 22:59 43.93195 -5.58602 16869 ft 298 kts 219°
2026-05-03 23:00 43.91593 -5.60417 16480 ft 298 kts 219°
2026-05-03 23:00 43.89994 -5.62226 16088 ft 297 kts 219°
2026-05-03 23:00 43.88405 -5.64021 15707 ft 297 kts 219°
2026-05-03 23:00 43.86805 -5.65828 15322 ft 296 kts 218°
2026-05-03 23:01 43.85206 -5.67632 14959 ft 296 kts 218°
2026-05-03 23:01 43.83618 -5.69424 14601 ft 295 kts 218°
2026-05-03 23:01 43.82032 -5.71212 14212 ft 295 kts 218°
2026-05-03 23:01 43.80439 -5.73005 13817 ft 294 kts 218°
2026-05-03 23:02 43.78864 -5.74777 13446 ft 294 kts 218°
2026-05-03 23:02 43.77274 -5.76565 13071 ft 294 kts 218°
2026-05-03 23:02 43.75690 -5.78345 12691 ft 294 kts 219°
2026-05-03 23:02 43.74108 -5.80122 12319 ft 294 kts 219°
2026-05-03 23:03 43.72521 -5.81902 11953 ft 294 kts 219°
2026-05-03 23:03 43.70940 -5.83675 11590 ft 294 kts 219°
2026-05-03 23:03 43.69364 -5.85442 11217 ft 294 kts 219°
2026-05-03 23:03 43.67793 -5.87201 10895 ft 292 kts 219°
2026-05-03 23:04 43.66211 -5.88971 10643 ft 288 kts 219°
2026-05-03 23:04 43.64671 -5.90693 10408 ft 285 kts 220°
2026-05-03 23:04 43.63145 -5.92400 10169 ft 282 kts 220°
2026-05-03 23:04 43.61631 -5.94091 9975 ft 277 kts 220°
2026-05-03 23:05 43.60141 -5.95755 10014 ft 276 kts 220°
2026-05-03 23:05 43.58660 -5.97406 9996 ft 276 kts 220°
2026-05-03 23:05 43.57149 -5.99092 9995 ft 277 kts 220°
2026-05-03 23:05 43.55746 -6.00851 9981 ft 276 kts 233°
2026-05-03 23:06 43.54916 -6.03219 10011 ft 275 kts 253°
2026-05-03 23:06 43.54359 -6.05755 10000 ft 278 kts 252°
2026-05-03 23:06 43.53735 -6.08387 10030 ft 305 kts 251°
2026-05-03 23:06 43.53025 -6.11295 10023 ft 336 kts 251°
2026-05-03 23:07 43.52237 -6.14465 10013 ft 363 kts 251°
2026-05-03 23:07 43.51409 -6.17772 9984 ft 367 kts 251°
2026-05-03 23:07 43.50579 -6.21067 9920 ft 357 kts 251°
2026-05-03 23:07 43.49768 -6.24279 10052 ft 356 kts 251°
2026-05-03 23:08 43.48954 -6.27498 9953 ft 355 kts 251°
2026-05-03 23:08 43.48150 -6.30671 9982 ft 354 kts 251°
2026-05-03 23:08 43.47332 -6.33892 9995 ft 355 kts 251°
2026-05-03 23:08 43.46520 -6.37083 9997 ft 356 kts 251°
2026-05-03 23:09 43.45692 -6.40336 9974 ft 356 kts 251°
2026-05-03 23:09 43.44878 -6.43531 9990 ft 356 kts 251°
2026-05-03 23:09 43.44067 -6.46708 9987 ft 355 kts 251°
2026-05-03 23:09 43.43249 -6.49909 9972 ft 354 kts 250°
2026-05-03 23:10 43.42426 -6.53120 10026 ft 355 kts 251°
2026-05-03 23:10 43.41614 -6.56288 10013 ft 355 kts 251°
2026-05-03 23:10 43.40789 -6.59505 9988 ft 355 kts 251°
2026-05-03 23:10 43.39975 -6.62674 9988 ft 355 kts 251°
2026-05-03 23:11 43.39151 -6.65879 9995 ft 355 kts 250°
2026-05-03 23:11 43.38350 -6.69062 9988 ft 356 kts 250°
2026-05-03 23:11 43.37540 -6.72272 10003 ft 355 kts 250°
2026-05-03 23:11 43.36725 -6.75499 10000 ft 356 kts 250°
2026-05-03 23:12 43.35912 -6.78713 10007 ft 357 kts 250°
2026-05-03 23:12 43.35098 -6.81927 9981 ft 356 kts 250°
2026-05-03 23:12 43.34288 -6.85118 10004 ft 356 kts 250°
2026-05-03 23:12 43.33472 -6.88330 10014 ft 356 kts 250°
2026-05-03 23:13 43.32660 -6.91526 9988 ft 356 kts 250°
2026-05-03 23:13 43.31842 -6.94736 10010 ft 356 kts 250°
2026-05-03 23:13 43.31031 -6.97916 9999 ft 356 kts 251°
2026-05-03 23:13 43.30213 -7.01117 9999 ft 356 kts 251°
2026-05-03 23:14 43.29394 -7.04322 10002 ft 356 kts 251°
2026-05-03 23:14 43.28568 -7.07545 10011 ft 356 kts 251°
2026-05-03 23:14 43.27750 -7.10736 10003 ft 356 kts 251°
2026-05-03 23:14 43.26935 -7.13911 9997 ft 356 kts 251°
2026-05-03 23:15 43.26110 -7.17119 10004 ft 356 kts 251°
2026-05-03 23:15 43.25285 -7.20325 9999 ft 357 kts 251°
2026-05-03 23:15 43.24458 -7.23534 9993 ft 357 kts 251°
2026-05-03 23:15 43.23638 -7.26710 10006 ft 357 kts 251°
2026-05-03 23:16 43.22813 -7.29901 10000 ft 358 kts 251°
2026-05-03 23:16 43.21976 -7.33134 10006 ft 357 kts 251°
2026-05-03 23:16 43.21147 -7.36326 10011 ft 358 kts 251°
2026-05-03 23:16 43.20314 -7.39499 10013 ft 357 kts 250°
2026-05-03 23:17 43.19466 -7.42728 10011 ft 356 kts 250°
2026-05-03 23:17 43.18634 -7.45892 10022 ft 357 kts 251°
2026-05-03 23:17 43.17795 -7.49077 10003 ft 356 kts 251°
2026-05-03 23:17 43.16953 -7.52271 10014 ft 356 kts 251°
2026-05-03 23:18 43.16104 -7.55487 10018 ft 356 kts 251°
2026-05-03 23:18 43.15266 -7.58652 10019 ft 357 kts 251°
2026-05-03 23:18 43.14418 -7.61857 10017 ft 357 kts 251°
2026-05-03 23:18 43.13583 -7.65008 10004 ft 357 kts 250°
2026-05-03 23:19 43.12729 -7.68221 9954 ft 358 kts 250°
2026-05-03 23:19 43.11882 -7.71411 9685 ft 359 kts 250°
2026-05-03 23:19 43.11027 -7.74624 9265 ft 356 kts 250°
2026-05-03 23:19 43.10186 -7.77779 8879 ft 354 kts 250°
2026-05-03 23:20 43.09348 -7.80920 8512 ft 351 kts 250°
2026-05-03 23:20 43.08524 -7.84008 8097 ft 342 kts 250°
2026-05-03 23:20 43.07726 -7.86989 7651 ft 327 kts 250°
2026-05-03 23:20 43.06960 -7.89850 7248 ft 314 kts 250°
2026-05-03 23:21 43.06226 -7.92589 6853 ft 302 kts 250°
2026-05-03 23:21 43.05517 -7.95228 6457 ft 293 kts 250°
2026-05-03 23:21 43.04829 -7.97791 6066 ft 286 kts 250°
2026-05-03 23:21 43.04153 -8.00304 5675 ft 279 kts 251°
2026-05-03 23:22 43.02855 -8.05115 5292 ft 255 kts 251°
2026-05-03 23:22 43.02260 -8.07323 5189 ft 242 kts 251°
2026-05-03 23:22 43.01691 -8.09428 5085 ft 231 kts 251°
2026-05-03 23:23 43.01152 -8.11419 5000 ft 221 kts 251°
2026-05-03 23:23 43.00634 -8.13336 4916 ft 210 kts 251°
2026-05-03 23:23 43.00137 -8.15171 4826 ft 203 kts 251°
2026-05-03 23:23 42.99646 -8.16983 4800 ft 203 kts 251°
2026-05-03 23:24 42.99153 -8.18802 4781 ft 204 kts 251°
2026-05-03 23:24 42.98487 -8.20486 4735 ft 207 kts 225°
2026-05-03 23:24 42.97248 -8.21515 4760 ft 208 kts 204°
2026-05-03 23:24 42.95897 -8.22246 4746 ft 208 kts 202°
2026-05-03 23:25 42.94551 -8.22965 4720 ft 208 kts 202°
2026-05-03 23:25 42.93205 -8.23681 4698 ft 208 kts 202°
2026-05-03 23:25 42.91866 -8.24393 4670 ft 208 kts 202°
2026-05-03 23:25 42.90545 -8.25094 4635 ft 198 kts 202°
2026-05-03 23:26 42.89291 -8.25756 4710 ft 188 kts 203°
2026-05-03 23:26 42.88049 -8.26413 4621 ft 192 kts 202°
2026-05-03 23:26 42.86802 -8.27070 4483 ft 191 kts 202°
2026-05-03 23:26 42.85555 -8.27729 4428 ft 192 kts 203°
2026-05-03 23:27 42.84302 -8.28368 4345 ft 192 kts 199°
2026-05-03 23:27 42.82981 -8.28499 4248 ft 192 kts 178°
2026-05-03 23:27 42.81647 -8.28481 4168 ft 191 kts 188°
2026-05-03 23:27 42.80315 -8.28541 4087 ft 191 kts 175°
2026-05-03 23:28 42.78988 -8.28334 4020 ft 191 kts 174°
2026-05-03 23:28 42.77678 -8.28118 3970 ft 190 kts 174°
2026-05-03 23:28 42.76362 -8.27901 3981 ft 189 kts 174°
2026-05-03 23:28 42.75046 -8.27683 3979 ft 189 kts 174°
2026-05-03 23:29 42.73729 -8.27463 3971 ft 189 kts 174°
2026-05-03 23:29 42.72429 -8.27247 4028 ft 188 kts 174°
2026-05-03 23:29 42.71124 -8.27013 3937 ft 190 kts 179°
2026-05-03 23:29 42.69838 -8.27288 3950 ft 185 kts 195°
2026-05-03 23:30 42.68687 -8.28005 3945 ft 185 kts 217°
2026-05-03 23:30 42.67663 -8.29058 3969 ft 183 kts 212°
2026-05-03 23:30 42.66721 -8.30176 3921 ft 181 kts 241°
2026-05-03 23:30 42.66515 -8.31747 3910 ft 164 kts 286°
2026-05-03 23:31 42.66978 -8.33118 3956 ft 158 kts 308°
2026-05-03 23:31 42.67865 -8.33871 3957 ft 151 kts 346°
2026-05-03 23:31 42.68878 -8.34269 3977 ft 152 kts 343°
2026-05-03 23:31 42.69875 -8.34672 3938 ft 148 kts 343°
2026-05-03 23:32 42.70874 -8.35068 3970 ft 148 kts 344°
2026-05-03 23:32 42.71852 -8.35452 3969 ft 147 kts 344°
2026-05-03 23:32 42.72838 -8.35836 3977 ft 147 kts 344°
2026-05-03 23:32 42.73824 -8.36216 3975 ft 147 kts 344°
2026-05-03 23:33 42.74819 -8.36599 3887 ft 148 kts 344°
2026-05-03 23:33 42.75797 -8.36974 3688 ft 146 kts 345°
2026-05-03 23:33 42.76784 -8.37351 3500 ft 145 kts 345°
2026-05-03 23:33 42.77742 -8.37718 3313 ft 142 kts 345°
2026-05-03 23:34 42.78699 -8.38085 3133 ft 141 kts 345°
2026-05-03 23:34 42.79642 -8.38440 2946 ft 142 kts 345°
2026-05-03 23:34 42.80630 -8.38615 2756 ft 142 kts 341°
2026-05-03 23:34 42.81581 -8.39014 2600 ft 143 kts 346°
2026-05-03 23:35 42.82555 -8.39339 2406 ft 143 kts 346°
2026-05-03 23:35 42.83513 -8.39649 2220 ft 143 kts 347°
2026-05-03 23:35 42.84486 -8.39958 2022 ft 142 kts 347°
2026-05-03 23:35 42.85457 -8.40262 1826 ft 143 kts 348°
2026-05-03 23:36 42.86424 -8.40518 1647 ft 142 kts 351°
2026-05-03 23:36 42.87393 -8.40789 1444 ft 143 kts 346°
2026-05-03 23:36 42.88363 -8.41088 1279 ft 142 kts 347°
2026-05-03 23:36 42.89336 -8.41415 1216 ft 147 kts 347°
2026-05-03 23:37 42.89877 -8.41596 1205 ft 40 kts 346°
2026-05-03 23:37 42.90017 -8.41656 1202 ft 7 kts 302°
2026-05-03 23:37 42.90020 -8.41704 1202 ft 1 kts 257°
2026-05-03 23:37 42.90015 -8.41729 1202 ft 3 kts 257°
2026-05-03 23:38 42.90009 -8.41764 1202 ft 4 kts 256°
2026-05-03 23:38 42.90002 -8.41804 1203 ft 4 kts 254°
2026-05-03 23:38 42.89983 -8.41840 1203 ft 4 kts 212°
2026-05-03 23:38 42.89948 -8.41845 1203 ft 5 kts 177°
2026-05-03 23:39 42.89908 -8.41837 1204 ft 5 kts 170°
2026-05-03 23:39 42.89865 -8.41824 1205 ft 6 kts 166°
2026-05-03 23:39 42.89822 -8.41809 1206 ft 6 kts 166°
2026-05-03 23:39 42.89779 -8.41794 1208 ft 6 kts 166°
2026-05-03 23:40 42.89736 -8.41779 1209 ft 6 kts 166°
2026-05-03 23:40 42.89693 -8.41766 1210 ft 6 kts 181°
2026-05-03 23:40 42.89661 -8.41803 1210 ft 7 kts 256°
2026-05-03 23:40 42.89653 -8.41848 1209 ft 4 kts 257°
2026-05-03 23:41 42.89652 -8.41853 1209 ft 0 kts 257°